Showing default

STEP 2, 23105

Orbit data source: Space-Track

STEP 2, 23105 is a payload satellite owned by USAF STP (US) in LEO that was launched on Thu, 19 May 1994 UTC via a PEGASUS/HAPS launch vehicle from the Air Force Western Test Range (AFWTR). Payload-class satellites include a variety of spacecraft equipped with specific instruments for various scientific and technological missions. These include communications satellites like Starlink; space stations such as the ISS; scientific satellites like the Hubble; Earth observation satellites from companies like Planet Labs, Umbra, and HawkEye 360; GPS; miniature CubeSats for education and research; and military/defense satellites.

Loading next visibility...
Identifier
23105, 1994-029A
Orbit
LEO
Country
Flag of USUS
Related business
Manufacturer
TRWC/CTA
Mission
Defense Technology
Bus & Motor
LEOSTAR T-200, Unknown motor
Mass
180 kg wet, 180 kg dry
Launch date (UTC)
1994-05-19 (32 years ago)
Launch vehicle
PEGASUS/HAPS
Launch site
Air Force Western Test Range (AFWTR)
Object type
Payload
Rocket body
Debris
Shape & HBR
Cyl + 4 Pan, 1.5 m
Radar Cross Section
3.076 m², Large (>1 m²)

Expand to show TLE details & history
Last TLE update: 11 hours ago

TLE from 11 hours ago
0 STEP 2
1 23105U 94029A   26178.24448300  .00002505  00000-0  23725-3 0  9998
2 23105  81.9370 163.5952 0080949 225.2884 134.1724 14.90758779721383
Epoch: 2026-06-27T05:52Z
TLE epoch observation values (Epoch: 2026-06-27T05:52:03.331Z)
Latitude
0.00001°
Longitude
160.2199°
Altitude
638.177 km
Speed
7.518 km/s
True Right ascension
10h 54m 22s
True Declination
0° 00' 00"
Sunlit
Object was in daylight at epoch
Visualization orbit readout
Latitude
Unknown
Longitude
Unknown
Altitude
Unknown
Speed
Unknown
Apparent Right ascension
Unknown
Apparent Declination
Unknown
Sunlit
N/A
Visualization observer readout
Local Sidereal Time
04:07:46
Azimuth
Unknown
Elevation
Unknown
Doppler factor
Unknown
Orbital elements
Apogee altitude
649.029 km
Perigee altitude
536.174 km
Semi-major axis
6,970.739 km
Eccentricity
0.00809
Inclination
81.937°
RAAN
163.5952°
Arg. of periapsis
225.2884°
True anomaly
134.83305°
Mean anomaly
134.1724°
Eccentric anomaly
134.50319°
Mean motion
3.72928 °/min
Orbital period
96.53 mins
BSTAR
0.00023725
Loading maneuver chart data...
Computing Atmospheric mass density...

Documentation

Showing up to 5 results
|